Regional Weather Roundup
Issued by NWS

Home | Current Version | Previous Version | Text Only | Print | Product List | Glossary Off
Versions: 1 2 3 4 5 6 7 8 9 10 11 12 13 14 15 16 17 18 19 20 21 22 23 24 25 26 27 28 29 30 31 32 33 34 35 36 37 38 39 40 41 42 43 44 45 46 47 48 49 50

000
ASUS43 KDMX 261506
RWRIA

WEATHER ROUNDUP FOR IOWA
NATIONAL WEATHER SERVICE DES MOINES IA
1000 AM CDT WED APR 26 2017

NOTE: "FAIR" INDICATES FEW OR NO CLOUDS BELOW 12,000 FEET WITH NO
SIGNIFICANT WEATHER AND/OR OBSTRUCTIONS TO VISIBILITY.

* - THESE STATIONS ARE NOT NWS STATIONS...THUS NOT UNDER NWS
QUALITY CONTROL.  THEY ALSO DO NOT REPORT WEATHER SUCH
AS PRECIPITATION OR FOG.

IAZ001>003-012>014-020>022-031>034-043>046-261600-
   NORTHWEST IOWA

CITY           SKY/WX    TMP DP  RH WIND       PRES   REMARKS
CARROLL *      CLOUDY    39  39 100 NW21G29   29.58S WCI  29
CHEROKEE *     CLOUDY    37  36  94 NW16G23   29.61S WCI  28
DENISON *      CLOUDY    37  36  93 NW10G21   29.64S WCI  30
LE MARS *      CLOUDY    36  34  93 NW20G29   29.65F WCI  25
ORANGE CITY *  CLOUDY    37  36  93 N13G22    29.62S WCI  29
SHELDON *      CLOUDY    36  34  93 NW20G28   29.60F WCI  25
SIOUX CITY     CLOUDY    37  33  85 NW23G31   29.64F WCI  26
SPENCER        CLOUDY    38  35  89 NW20G28   29.58F WCI  28
STORM LAKE *     N/A     37  36  93 NW21G30   29.58S WCI  27
$$

IAZ055>058-069>071-079>083-090>094-261600-
   SOUTHWEST IOWA

CITY           SKY/WX    TMP DP  RH WIND       PRES   REMARKS
ATLANTIC *     CLOUDY    37  36  93 NW17      29.61F WCI  28
AUDUBON *      CLOUDY    37  34  87 NW15G23   29.60F WCI  28
CLARINDA *     CLOUDY    39  37  93 NW16      29.66F FOG     WCI  30
COUNCIL BLFS *   N/A    N/A N/A N/A NW16G23   29.63F
CRESTON *      CLOUDY    39  37  93 NW18      29.61S WCI  30
HARLAN  *      CLOUDY    37  37 100 NW20G25   29.65F WCI  27
LAMONI         CLOUDY    42  39  89 NW20      29.60R
RED OAK *      CLOUDY    39  34  81 NW14G23   29.65S WCI  31
SHENANDOAH *   CLOUDY    39  34  81 N13       29.67R WCI  32
$$

IAZ047>049-059>061-072>074-084-261600-
   CENTRAL IOWA

CITY           SKY/WX    TMP DP  RH WIND       PRES   REMARKS
AMES           CLOUDY    43  40  89 NW17      29.54R
ANKENY *       CLOUDY    43  39  87 NW21      29.57R
BOONE *        CLOUDY    41  41 100 NW22G29   29.53S
CHARITON *     CLOUDY    41  41 100 NW21      29.56S
DES MOINES     CLOUDY    43  38  82 NW20G26   29.57R
GRINNELL*      CLOUDY    44  42  92 W22G29    29.53R
KNOXVILLE *    CLOUDY    43  41  93 W20G26    29.55R
MARSHALLTOWN   CLOUDY    44  42  93 NW23      29.51R
NEWTON *       CLOUDY    43  41  93 W16G23    29.53R
PELLA *        CLOUDY    44  41  91 W15G22    29.56R
PERRY *        CLOUDY    42  37  84 NW14      29.58R
$$

IAZ004>006-015-016-023>025-035-036-261600-
   NORTH CENTRAL IOWA

CITY           SKY/WX    TMP DP  RH WIND       PRES   REMARKS
ALGONA *       CLOUDY    37  37 100 NW21G29   29.54R WCI  27
CLARION *      CLOUDY    39  39 100 NW26      29.53R WCI  28
ESTHERVILLE    CLOUDY    37  36  96 N20G29    29.55S WCI  27
FORT DODGE *   CLOUDY    39  34  81 NW12G18   29.58R WCI  32
MASON CITY     CLOUDY    42  40  92 NW21      29.49R
FOREST CITY *  CLOUDY    37  37 100 NW24G30   29.51R FOG     WCI  26
WEBSTER CITY * MIX PCPN  41  39  93 NW25      29.53R
IOWA FALLS *   CLOUDY    43  40  89 W20       29.52R
$$

IAZ007>011-017>019-026>030-037>042-050>054-066-261600-
   NORTHEAST IOWA

CITY           SKY/WX    TMP DP  RH WIND       PRES   REMARKS
CEDAR RAPIDS   CLOUDY    48  48 100 W17       29.48R
CHARLES CITY * CLOUDY    46  46 100 NW15      29.44R
CLINTON *      LGT RAIN  59  57  93 W15       29.44R
DECORAH *      DRIZZLE   54  52  94 W7        29.37S
DUBUQUE        LGT RAIN  55  54  96 W10       29.41R FOG
MONTICELLO *   CLOUDY    54  52  94 SW16      29.44R
OELWEIN *      CLOUDY    50  50 100 W15       29.44R
WATERLOO       CLOUDY    48  45  89 W14G21    29.46R
$$

IAZ064-065-067-068-078-261600-
   EAST CENTRAL IOWA

CITY           SKY/WX    TMP DP  RH WIND       PRES   REMARKS
DAVENPORT      CLOUDY    55  53  93 W16       29.45S
IOWA CITY      CLOUDY    50  46  86 W15       29.51R
MT. PLEASANT * CLOUDY    50  49  95 W10G21    29.51R
MUSCATINE *    CLOUDY    54  50  87 W13G18    29.48S
QUAD CITIES    CLOUDY    59  55  87 W14       29.44R FOG
$$

IAZ062-063-075>077-085>089-095>099-261600-
   SOUTHEAST IOWA

CITY           SKY/WX    TMP DP  RH WIND       PRES   REMARKS
BURLINGTON     CLOUDY    54  52  93 W12       29.48R
FAIRFIELD *    CLOUDY    46  45  93 W17       29.50F
FORT MADISON * CLOUDY    55  52  88 W14       29.51R
KEOKUK *       CLOUDY    54  52  94 W14       29.51R
OSKALOOSA *    CLOUDY    45  42  91 NW21      29.53S
OTTUMWA        CLOUDY    46  44  93 W16G24    29.53R
WASHINGTON *   CLOUDY    48  46  93 W13G20    29.52R
$$

ABBREVIATIONS USED IN REMARKS
   TC - TEMPERATURES IN CELSIUS
  WCI - WIND CHILL INDEX
   HX - HEAT INDEX
  VSB - VISIBILITY
$$





USA.gov is the U.S. government's official web portal to all federal, state and local government web resources and services.